Ankeny, IA

3:07 PM CST on December 08, 2019 (GMT -0600)
Ankeny Regional

Weather History for KIKV - August, 2019

Change the Weather History Date:

Saturday, August 31, 2019

  Actual Average (WUND) Record (WUND)
Temperature  
Mean Temperature 60 °F -  
Max Temperature 66 °F - - (-1)
Min Temperature 55 °F - - (-1)
Degree Days  
Heating Degree Days 4    
Growing Degree Days 10 (Base 50)    
Moisture  
Dew Point 56 °F    
Average Humidity 81    
Maximum Humidity 100    
Minimum Humidity 64    
Precipitation  
Precipitation 0.00 in - - ()
Sea Level Pressure  
Sea Level Pressure 30.23 in    
Wind  
Wind Speed 3 mph ()    
Max Wind Speed 13 mph    
Max Gust Speed 14 mph    
Visibility 10.0 miles    
Events      
Averages and records for this station are not official NWS values.
T = Trace of Precipitation, MM = Missing Value Source: Averaged Metar Reports

Daily Weather History Graph

Daily Weather History Graph

Search for Another Location

Airport or City:

Astronomy

Aug. 31, 2019 Rise Set
Actual Time 6:39 AM CDT 7:49 PM CDT
Civil Twilight 6:10 AM CDT 8:18 PM CDT
Nautical Twilight 5:36 AM CDT 8:52 PM CDT
Astronomical Twilight 5:00 AM CDT 9:28 PM CDT
Moon 7:56 AM CDT (8/31) 9:01 PM CDT (8/31)
Length of Visible Light 14h 07m
Length of Day
13h 10m
New Moon, 3% of the Moon is Illuminated
Aug 31
New Moon
Sep 5
First Quarter
Sep 13
Full
Sep 21
Last Quarter
Sep 28
New

Hourly Weather History & Observations

Time (CDT) Temp. Dew Point Humidity Pressure Visibility Wind Dir Wind Speed Gust Speed Precip Events Conditions
12:15 AM 57.2 °F 55.4 °F 94% 30.23 in 10.0 mi Calm Calm - N/A   Clear
12:35 AM 59.0 °F 55.4 °F 88% 30.23 in 10.0 mi Calm Calm - N/A   Clear
12:55 AM 59.0 °F 55.4 °F 88% 30.24 in 10.0 mi Calm Calm - N/A   Clear
1:15 AM 59.0 °F 55.4 °F 88% 30.25 in 10.0 mi Calm Calm - N/A   Clear
1:35 AM 57.2 °F 55.4 °F 94% 30.25 in 10.0 mi Calm Calm - N/A   Clear
1:55 AM 55.4 °F 53.6 °F 94% 30.24 in 10.0 mi NNE 3.5 mph - N/A   Clear
2:15 AM 57.2 °F 55.4 °F 94% 30.24 in 10.0 mi NNE 4.6 mph - N/A   Clear
2:35 AM 55.4 °F 55.4 °F 100% 30.24 in 10.0 mi Calm Calm - N/A   Clear
2:55 AM 55.4 °F 53.6 °F 94% 30.24 in 10.0 mi NE 3.5 mph - N/A   Clear
3:15 AM 55.4 °F 53.6 °F 94% 30.24 in 10.0 mi NE 4.6 mph - N/A   Clear
3:35 AM 55.4 °F 53.6 °F 94% 30.23 in 10.0 mi Calm Calm - N/A   Clear
3:55 AM 55.4 °F 53.6 °F 94% 30.24 in 10.0 mi North 3.5 mph - N/A   Clear
4:15 AM 55.4 °F 53.6 °F 94% 30.24 in 10.0 mi Calm Calm - N/A   Clear
4:35 AM 57.2 °F 53.6 °F 88% 30.25 in 10.0 mi Calm Calm - N/A   Partly Cloudy
4:55 AM 57.2 °F 55.4 °F 94% 30.25 in 10.0 mi North 4.6 mph - N/A   Clear
5:15 AM 57.2 °F 55.4 °F 94% 30.25 in 10.0 mi NNE 4.6 mph - N/A   Clear
5:35 AM 57.2 °F 55.4 °F 94% 30.24 in 10.0 mi Calm Calm - N/A   Scattered Clouds
5:55 AM 57.2 °F 55.4 °F 94% 30.24 in 10.0 mi Calm Calm - N/A   Mostly Cloudy
6:15 AM 57.2 °F 55.4 °F 94% 30.24 in 10.0 mi Calm Calm - N/A   Partly Cloudy
6:35 AM 57.2 °F 55.4 °F 94% 30.23 in 10.0 mi ESE 5.8 mph - N/A   Scattered Clouds
6:55 AM 59.0 °F 55.4 °F 88% 30.23 in 10.0 mi East 5.8 mph - N/A   Mostly Cloudy
7:15 AM 59.0 °F 55.4 °F 88% 30.23 in 10.0 mi Calm Calm - N/A   Mostly Cloudy
7:35 AM 59.0 °F 55.4 °F 88% 30.23 in 10.0 mi East 5.8 mph - N/A   Overcast
7:55 AM 59.0 °F 55.4 °F 88% 30.24 in 10.0 mi East 4.6 mph - N/A   Overcast
8:15 AM 59.0 °F 55.4 °F 88% 30.25 in 10.0 mi East 4.6 mph - N/A   Overcast
8:35 AM 60.8 °F 55.4 °F 82% 30.26 in 10.0 mi East 4.6 mph - N/A   Mostly Cloudy
8:55 AM 60.8 °F 55.4 °F 82% 30.26 in 10.0 mi NE 4.6 mph - N/A   Mostly Cloudy
9:15 AM 60.8 °F 57.2 °F 88% 30.26 in 10.0 mi East 4.6 mph - N/A   Mostly Cloudy
9:35 AM 62.6 °F 57.2 °F 82% 30.25 in 10.0 mi ESE 8.1 mph - N/A   Partly Cloudy
9:55 AM 62.6 °F 53.6 °F 72% 30.25 in 10.0 mi ESE 12.7 mph - N/A   Scattered Clouds
10:15 AM 64.4 °F 53.6 °F 68% 30.25 in 10.0 mi ESE 8.1 mph - N/A   Scattered Clouds
10:35 AM 64.4 °F 55.4 °F 73% 30.25 in 10.0 mi ESE 8.1 mph - N/A   Partly Cloudy
10:55 AM 64.4 °F 53.6 °F 68% 30.25 in 10.0 mi SE 6.9 mph 12.7 mph N/A   Clear
11:15 AM 66.2 °F 53.6 °F 64% 30.25 in 10.0 mi SE 6.9 mph 13.8 mph N/A   Clear
11:35 AM 64.4 °F 53.6 °F 68% 30.25 in 10.0 mi ESE 6.9 mph - N/A   Scattered Clouds
11:55 AM 64.4 °F 53.6 °F 68% 30.25 in 10.0 mi ESE 5.8 mph - N/A   Partly Cloudy
12:15 PM 66.2 °F 53.6 °F 64% 30.26 in 10.0 mi ESE 6.9 mph - N/A   Mostly Cloudy
12:35 PM 66.2 °F 55.4 °F 68% 30.25 in 10.0 mi ESE 8.1 mph - N/A   Partly Cloudy
12:55 PM 66.2 °F 53.6 °F 64% 30.25 in 10.0 mi SE 9.2 mph - N/A   Scattered Clouds
1:15 PM 64.4 °F 53.6 °F 68% 30.25 in 10.0 mi ESE 4.6 mph - N/A   Scattered Clouds
1:35 PM 66.2 °F 55.4 °F 68% 30.25 in 10.0 mi ENE 6.9 mph - N/A   Mostly Cloudy
1:55 PM 66.2 °F 55.4 °F 68% 30.25 in 10.0 mi Variable 6.9 mph - N/A   Partly Cloudy
2:15 PM 66.2 °F 55.4 °F 68% 30.25 in 10.0 mi ESE 5.8 mph - N/A   Scattered Clouds
2:35 PM 66.2 °F 55.4 °F 68% 30.24 in 10.0 mi East 4.6 mph - N/A   Mostly Cloudy
2:55 PM 66.2 °F 55.4 °F 68% 30.23 in 10.0 mi East 8.1 mph - N/A   Scattered Clouds
3:15 PM 66.2 °F 55.4 °F 68% 30.23 in 10.0 mi Variable 6.9 mph - N/A   Scattered Clouds
3:35 PM 66.2 °F 57.2 °F 73% 30.22 in 10.0 mi East 9.2 mph - N/A   Scattered Clouds
3:55 PM 66.2 °F 55.4 °F 68% 30.21 in 10.0 mi East 9.2 mph - N/A   Partly Cloudy
4:15 PM 66.2 °F 57.2 °F 73% 30.21 in 10.0 mi East 8.1 mph 13.8 mph N/A   Partly Cloudy
4:35 PM 66.2 °F 55.4 °F 68% 30.20 in 10.0 mi East 9.2 mph - N/A   Clear
4:55 PM 66.2 °F 55.4 °F 68% 30.20 in 10.0 mi East 9.2 mph - N/A   Clear
5:15 PM 66.2 °F 55.4 °F 68% 30.20 in 10.0 mi East 6.9 mph - N/A   Clear
5:35 PM 66.2 °F 55.4 °F 68% 30.19 in 10.0 mi East 8.1 mph - N/A   Partly Cloudy
5:55 PM 66.2 °F 57.2 °F 73% 30.18 in 10.0 mi ENE 8.1 mph - N/A   Partly Cloudy
6:15 PM 66.2 °F 57.2 °F 73% 30.18 in 10.0 mi East 9.2 mph - N/A   Scattered Clouds
6:35 PM 66.2 °F 57.2 °F 73% 30.19 in 10.0 mi ENE 6.9 mph - N/A   Mostly Cloudy
6:55 PM 66.2 °F 57.2 °F 73% 30.19 in 10.0 mi Calm Calm - N/A   Mostly Cloudy
7:15 PM 64.4 °F 57.2 °F 77% 30.19 in 10.0 mi ENE 4.6 mph - N/A   Mostly Cloudy
7:35 PM 64.4 °F 57.2 °F 77% 30.19 in 10.0 mi NNE 4.6 mph - N/A   Overcast
7:55 PM 64.4 °F 57.2 °F 77% 30.20 in 10.0 mi North 4.6 mph - N/A   Overcast
8:15 PM 62.6 °F 59.0 °F 88% 30.19 in 9.0 mi NNE 8.1 mph - N/A   Light Drizzle
8:35 PM 62.6 °F 59.0 °F 88% 30.19 in 10.0 mi Calm Calm - N/A   Overcast
8:55 PM 62.6 °F 59.0 °F 88% 30.19 in 10.0 mi Calm Calm - N/A   Overcast
9:15 PM 62.6 °F 59.0 °F 88% 30.19 in 10.0 mi NE 3.5 mph - N/A   Overcast
9:35 PM 62.6 °F 59.0 °F 88% 30.19 in 10.0 mi East 4.6 mph - N/A   Overcast
9:55 PM 62.6 °F 59.0 °F 88% 30.19 in 10.0 mi East 4.6 mph - N/A   Overcast
10:15 PM 62.6 °F 59.0 °F 88% 30.20 in 10.0 mi Calm Calm - N/A   Overcast
10:35 PM 62.6 °F 59.0 °F 88% 30.20 in 10.0 mi Calm Calm - N/A   Overcast
10:55 PM 62.6 °F 59.0 °F 88% 30.20 in 10.0 mi Calm Calm - N/A   Overcast
11:15 PM 62.6 °F 59.0 °F 88% 30.21 in 10.0 mi Calm Calm - N/A   Overcast
11:35 PM 62.6 °F 59.0 °F 88% 30.21 in 10.0 mi NE 3.5 mph - N/A   Overcast
11:55 PM 62.6 °F 59.0 °F 88% 30.20 in 10.0 mi NE 3.5 mph - N/A   Overcast